BMCB-35 Weather Reports


time (UTC)temp
C
wind
direction
speed
KPH
gust
KPH
rain 1hr
cm
rain 24hr
cm
rain mn
cm
humidity
%
barometer
mb
20260506203005 10 267 6.4 11.3 0.00 0.08 0.08 76 1011.1
20260506202029 10 267 6.4 11.3 0.00 0.08 0.08 77 1011.1
20260506202023 10 267 6.4 11.3 0.00 0.08 0.08 79 1011.0
20260506201046 10 270 4.8 9.7 0.00 0.08 0.08 79 1011.0
20260506201035 10 270 4.8 9.7 0.00 0.08 0.08 81 1010.9
20260506200005 10 255 3.2 4.8 0.00 0.08 0.08 81 1010.9
20260506195009 10 225 1.6 4.8 0.00 0.08 0.08 84 1010.6
20260506194042 10 225 1.6 4.8 0.00 0.08 0.08 84 1010.6
20260506194033 10 225 1.6 4.8 0.00 0.08 0.08 83 1010.5
20260506193034 11 223 0.0 3.2 0.00 0.08 0.08 81 1010.3
20260506192007 11 272 4.8 8.0 0.00 0.08 0.08 81 1010.3
20260506192005 11 272 4.8 8.0 0.00 0.08 0.08 79 1010.3
20260506191008 11 272 6.4 11.3 0.00 0.08 0.08 79 1010.3
20260506190040 11 272 6.4 11.3 0.00 0.10 0.08 78 1010.0
20260506185015 11 273 6.4 11.3 0.00 0.15 0.08 78 1010.0
20260506184039 11 272 6.4 9.7 0.00 0.15 0.08 77 1009.9
20260506184033 11 272 6.4 9.7 0.00 0.15 0.08 77 1009.8
20260506183024 11 290 4.8 12.9 0.00 0.23 0.08 78 1009.6
20260506182013 11 280 4.8 9.7 0.00 0.23 0.08 77 1009.4
20260506181049 11 280 4.8 9.7 0.00 0.33 0.08 77 1009.4
20260506181042 12 280 4.8 9.7 0.00 0.33 0.08 77 1009.3
20260506180006 12 287 4.8 8.0 0.00 0.58 0.08 77 1009.3
20260506175046 12 287 4.8 8.0 0.00 0.71 0.08 76 1009.1
20260506175040 12 287 4.8 8.0 0.00 0.71 0.08 75 1009.0
20260506174015 12 292 4.8 9.7 0.00 0.86 0.08 75 1009.0
20260506174013 12 292 4.8 9.7 0.00 0.86 0.08 76 1008.9
20260506173042 12 292 4.8 9.7 0.00 0.94 0.08 76 1008.9
20260506173036 12 292 4.8 9.7 0.00 0.94 0.08 76 1008.8
20260506172044 12 276 6.4 14.5 0.00 0.99 0.08 76 1008.8
20260506172037 12 276 6.4 14.5 0.00 0.99 0.08 76 1008.7
20260506171011 12 295 4.8 11.3 0.00 0.99 0.08 76 1008.7
20260506170012 12 284 6.4 11.3 0.00 0.99 0.08 76 1008.7
20260506170010 12 284 6.4 11.3 0.00 0.99 0.08 78 1008.7
20260506165040 12 284 6.4 11.3 0.00 0.99 0.08 78 1008.7
20260506165033 12 284 6.4 11.3 0.00 0.99 0.08 79 1008.6
20260506164024 12 272 6.4 12.9 0.00 0.99 0.08 79 1008.5
20260506163012 12 288 3.2 9.7 0.00 0.99 0.08 79 1008.6
20260506162047 12 288 3.2 9.7 0.00 0.99 0.08 79 1008.6
20260506162040 12 288 3.2 9.7 0.00 0.99 0.08 79 1008.6
20260506161045 12 277 4.8 9.7 0.00 0.99 0.08 79 1008.6
20260506161039 12 277 4.8 9.7 0.00 0.99 0.08 79 1008.6
20260506160042 12 276 4.8 9.7 0.00 0.99 0.08 79 1008.5
20260506155033 12 277 4.8 8.0 0.00 0.99 0.08 79 1008.6
20260506154013 12 290 4.8 11.3 0.00 0.99 0.08 79 1008.6
20260506154011 12 290 4.8 11.3 0.00 0.99 0.08 80 1008.6
20260506153007 12 288 6.4 12.9 0.00 0.99 0.08 80 1008.5
20260506152009 12 285 4.8 8.0 0.00 0.99 0.08 80 1008.5
20260506151039 12 285 4.8 8.0 0.00 0.99 0.08 79 1008.4
20260506151033 12 285 4.8 8.0 0.00 0.99 0.08 80 1008.3
20260506150012 12 280 6.4 14.5 0.00 0.99 0.08 80 1008.3
20260506145045 12 280 6.4 14.5 0.00 0.99 0.08 81 1008.2
20260506145038 12 280 6.4 14.5 0.00 0.99 0.08 81 1008.1
20260506144015 12 283 6.4 12.9 0.00 0.99 0.08 81 1008.1
20260506143022 12 283 6.4 12.9 0.00 0.99 0.08 80 1007.9
20260506141004 12 262 6.4 11.3 0.00 0.99 0.08 81 1007.9
20260506140023 12 262 6.4 11.3 0.00 1.04 0.08 81 1007.9
20260506140016 12 262 6.4 11.3 0.00 1.04 0.08 82 1008.0
20260506135037 12 265 6.4 11.3 0.00 1.04 0.08 82 1008.0
20260506135030 12 265 6.4 11.3 0.00 1.04 0.08 84 1008.0
20260506134042 12 271 6.4 12.9 0.00 1.07 0.08 84 1008.0
20260506134035 12 271 6.4 12.9 0.00 1.07 0.08 83 1008.1
20260506133032 12 276 6.4 12.9 0.00 1.07 0.08 84 1008.0
20260506131043 12 273 8.0 14.5 0.00 1.09 0.08 84 1008.0
20260506131037 12 273 8.0 14.5 0.00 1.09 0.08 83 1007.9
20260506130012 12 279 6.4 11.3 0.00 1.09 0.08 83 1007.9
20260506125024 12 279 6.4 11.3 0.00 1.12 0.08 84 1007.8
20260506124015 12 262 6.4 11.3 0.00 1.12 0.08 84 1007.8
20260506123042 12 262 6.4 11.3 0.00 1.12 0.08 84 1007.7
20260506123036 12 262 6.4 11.3 0.00 1.12 0.08 84 1007.6
20260506122014 12 269 8.0 14.5 0.00 1.12 0.08 85 1007.5
20260506121005 12 277 6.4 12.9 0.00 1.17 0.08 85 1007.5
20260506120042 12 277 6.4 12.9 0.00 1.17 0.08 86 1007.4
20260506120036 12 277 6.4 12.9 0.00 1.17 0.08 86 1007.3
20260506115005 12 276 4.8 9.7 0.00 1.17 0.08 86 1007.3
20260506114013 12 269 6.4 14.5 0.00 1.17 0.08 84 1007.2
20260506113009 12 265 6.4 12.9 0.00 1.19 0.08 85 1007.1
20260506111014 13 258 8.0 14.5 0.00 1.19 0.08 86 1007.1
20260506110012 13 275 6.4 14.5 0.00 1.19 0.08 86 1007.1
20260506105036 13 275 6.4 14.5 0.00 1.24 0.08 85 1007.0
20260506105029 13 275 6.4 14.5 0.00 1.24 0.08 87 1006.9
20260506104031 12 269 6.4 12.9 0.00 1.24 0.08 87 1006.9
20260506103036 13 274 6.4 11.3 0.00 1.24 0.08 88 1006.8
20260506102008 13 271 4.8 9.7 0.03 1.24 0.08 90 1006.6
20260506101004 13 272 6.4 12.9 0.03 1.24 0.08 90 1006.6
20260506100005 12 265 8.0 14.5 0.03 1.24 0.08 90 1006.6
20260506095038 12 265 8.0 14.5 0.03 1.24 0.08 90 1006.6
20260506095031 12 265 8.0 14.5 0.03 1.24 0.08 94 1006.5
20260506094017 12 264 6.4 11.3 0.03 1.24 0.08 94 1006.5
20260506094015 12 264 6.4 11.3 0.03 1.24 0.08 95 1006.5
20260506093043 12 264 6.4 11.3 0.03 1.24 0.08 95 1006.5
20260506093038 12 264 6.4 11.3 0.03 1.24 0.08 95 1006.4
20260506092040 12 272 6.4 12.9 0.03 1.24 0.08 95 1006.4
20260506092034 12 272 6.4 12.9 0.00 1.22 0.05 96 1006.3
20260506091042 12 269 4.8 9.7 0.00 1.22 0.05 96 1006.3
20260506091036 12 269 4.8 9.7 0.00 1.22 0.05 95 1006.3
20260506090040 12 291 4.8 11.3 0.00 1.22 0.05 95 1006.3
20260506090033 12 291 4.8 11.3 0.00 1.22 0.05 93 1006.2
20260506085044 12 287 3.2 9.7 0.00 1.22 0.05 93 1006.2
20260506085039 12 287 3.2 9.7 0.00 1.22 0.05 92 1006.1
20260506084034 12 298 4.8 14.5 0.00 1.22 0.05 92 1006.1
20260506083042 12 280 4.8 11.3 0.00 1.22 0.05 92 1006.1
20260506083037 12 280 4.8 11.3 0.00 1.22 0.05 93 1006.0
20260506082014 12 282 4.8 11.3 0.00 1.22 0.05 93 1006.0
20260506082012 12 282 4.8 11.3 0.00 1.22 0.05 92 1005.9
20260506081014 12 278 6.4 9.7 0.00 1.22 0.05 93 1005.9
20260506073046 12 281 6.4 11.3 0.00 1.22 0.05 96 1006.0
20260506073040 11 281 6.4 11.3 0.00 1.22 0.05 97 1006.0
20260506072004 11 308 4.8 11.3 0.00 1.22 0.05 98 1006.1
20260506062037 11 318 1.6 4.8 0.05 1.22 0.05 99 1006.1
20260506062031 11 318 1.6 4.8 0.05 1.22 0.05 99 1006.1
20260506061005 10 346 1.6 6.4 0.05 1.22 0.05 98 1006.0
20260506051025 10 354 1.6 9.7 0.00 1.17 0.03 98 1005.9
20260506045037 10 17 1.6 3.2 0.00 1.17 0.03 97 1005.8
20260506044016 10 3 3.2 6.4 0.00 1.17 0.03 97 1005.8
20260506043024 10 3 3.2 6.4 0.00 1.17 0.03 97 1006.0
20260506042028 10 24 1.6 6.4 0.00 1.17 0.03 97 1006.0
20260506041029 10 316 1.6 4.8 0.00 1.17 0.03 97 1006.0
20260506040042 10 4 1.6 4.8 0.00 1.17 0.03 97 1006.0
20260506040037 10 4 1.6 4.8 0.00 1.17 0.03 97 1006.1
20260506035036 10 11 1.6 4.8 0.00 1.17 0.03 97 1006.2
20260506034005 10 4 1.6 3.2 0.00 1.17 0.03 97 1006.2
20260506033042 10 4 1.6 3.2 0.00 1.17 0.03 97 1006.3
20260506033038 10 4 1.6 3.2 0.00 1.17 0.03 97 1006.4
20260506032038 10 74 1.6 6.4 0.00 1.17 0.03 97 1006.4
20260506032033 10 74 1.6 6.4 0.00 1.17 0.03 98 1006.5
20260506031003 10 55 1.6 6.4 0.00 1.17 0.03 98 1006.5
20260506030004 10 103 1.6 6.4 0.00 1.17 0.03 98 1006.5
20260506025034 11 103 1.6 6.4 0.00 1.17 0.03 99 1006.4
20260506024024 11 66 1.6 4.8 0.00 1.17 0.03 99 1006.4
20260506023043 11 94 1.6 3.2 0.00 1.17 0.03 99 1006.3
20260506022035 11 93 1.6 4.8 0.00 1.17 0.03 99 1006.3
20260506021012 11 75 1.6 4.8 0.00 1.17 0.03 99 1006.3
20260506020011 11 70 0.0 3.2 0.00 1.17 0.03 99 1006.3
20260506015040 11 70 0.0 3.2 0.00 1.17 0.03 99 1006.3
20260506015035 11 70 0.0 3.2 0.00 1.17 0.03 99 1006.3
20260506014044 11 94 0.0 4.8 0.00 1.17 0.03 99 1006.3
20260506014039 11 94 0.0 4.8 0.00 1.17 0.03 99 1006.4
20260506013033 11 50 0.0 3.2 0.00 1.17 0.03 99 1006.5
20260506012023 11 327 1.6 6.4 0.00 1.17 0.03 99 1006.6
20260506011005 11 74 1.6 6.4 0.03 1.17 0.03 99 1006.7
20260506010037 11 74 1.6 6.4 0.03 1.17 0.03 99 1006.7
20260506010031 11 74 1.6 6.4 0.03 1.17 0.03 10 1006.9
20260506005009 11 19 1.6 4.8 0.03 1.17 0.03 99 1007.0
20260506004034 11 19 1.6 4.8 0.03 1.17 0.03 99 1007.0
20260506004029 11 19 1.6 4.8 0.03 1.17 0.03 10 1007.0
20260506003043 11 42 0.0 3.2 0.03 1.17 0.03 10 1007.1
20260506002042 11 26 1.6 4.8 0.03 1.17 0.03 10 1007.3
20260506001035 11 72 0.0 4.8 0.03 1.17 0.03 10 1007.3
20260506001029 10 72 0.0 4.8 0.00 1.17 0.00 10 1007.4
20260506000010 10 12 0.0 1.6 0.00 1.17 0.00 10 1007.4
20260505235017 10 45 0.0 3.2 0.00 1.17 0.00 10 1007.4
20260505235015 11 45 0.0 3.2 0.00 1.17 0.00 10 1007.4
20260505234137 10 45 0.0 3.2 0.00 1.17 0.00 10 1007.5
20260505233038 10 69 1.6 3.2 0.00 1.17 0.00 10 1007.5
20260505232030 10 113 1.6 3.2 0.00 1.17 0.00 10 1007.5
20260505231004 10 138 0.0 0.0 0.00 1.17 0.00 10 1007.5
20260505230008 10 138 0.0 0.0 0.00 1.17 0.00 10 1007.5
20260505225016 10 154 0.0 0.0 0.00 1.17 0.00 10 1007.5
20260505225013 10 154 0.0 0.0 0.00 1.17 0.00 10 1007.4
20260505224015 11 158 0.0 0.0 0.00 1.17 0.00 10 1007.5
20260505223015 11 99 1.6 1.6 0.00 1.17 0.00 10 1007.5
20260505222043 11 102 0.0 1.6 0.00 1.17 0.00 10 1007.5
20260505222036 11 102 0.0 1.6 0.00 1.17 0.00 10 1007.6
20260505221049 11 124 0.0 0.0 0.00 1.17 0.00 10 1007.6
20260505221043 11 124 0.0 0.0 0.00 1.17 0.00 10 1007.7
20260505220008 11 141 0.0 0.0 0.00 1.17 0.00 10 1007.7
20260505220005 11 131 0.0 0.0 0.00 1.17 0.00 10 1007.7
20260505215036 11 131 0.0 0.0 0.00 1.17 1.17 10 1007.7
20260505214047 11 126 0.0 0.0 0.00 1.17 1.17 10 1007.7
20260505214038 11 126 0.0 0.0 0.00 1.17 1.17 10 1007.7
20260505213041 11 133 0.0 0.0 0.00 1.17 1.17 10 1007.7
20260505212005 11 155 0.0 0.0 0.00 1.17 1.17 10 1007.7
20260505211041 12 155 0.0 0.0 0.00 1.17 1.17 99 1007.8
20260505210013 12 129 0.0 0.0 0.00 1.17 1.17 99 1007.8
20260505210011 12 129 0.0 0.0 0.00 1.17 1.17 99 1007.7
20260505205043 12 141 0.0 3.2 0.00 1.17 1.17 99 1007.7
20260505205037 12 141 0.0 3.2 0.00 1.17 1.17 97 1007.8